Regional Weather Roundup
Issued by NWS

Home | Current Version | Previous Version | Graphics & Text | Print | Product List | Glossary On
Versions: 1 2 3 4 5 6 7 8 9 10 11 12 13 14 15 16 17 18 19 20 21 22 23 24 25 26 27 28 29 30 31 32 33 34 35 36 37 38 39 40 41 42 43 44 45 46 47 48 49 50
000
ASUS43 KLMK 171602
RWRKY
KENTUCKY REGIONAL WEATHER ROUNDUP
NATIONAL WEATHER SERVICE LOUISVILLE KY
1200 PM EDT THU AUG 17 2017

NOTE "FAIR" INDICATES FEW OR NO CLOUDS BELOW 12,000 FEET
WITH NO SIGNIFICANT WEATHER AND/OR OBSTRUCTIONS TO VISIBILITY.

KYZ001>023-026-027-061>063-070>075-171700-
WESTERN AND SOUTH CENTRAL KENTUCKY

CITY           SKY/WX    TMP DP  RH WIND       PRES   REMARKS
PADUCAH        CLOUDY    84  72  67 SW14      29.96R
HENDERSON      MOSUNNY   85  75  72 SW15G21   29.94R HX  93
OWENSBORO      PTSUNNY   87  75  67 SW15G23   29.94R HX  96
HOPKINSVILLE   CLOUDY    82  74  78 SW16G24   30.00S
BOWLING GREEN  PTSUNNY   85  75  72 W14       30.00R HX  93
GLASGOW        MOSUNNY   86  73  64 SW14      30.01S HX  93
$$

KYZ024-025-028>034-038-045-046-053-171700-
NORTH CENTRAL KENTUCKY

CITY           SKY/WX    TMP DP  RH WIND       PRES   REMARKS
LOUISVILLE/SDF PTSUNNY   91  73  55 SW18G24   29.93S HX  99
LOUISVILLE/LOU MOSUNNY   88  74  63 SW15G22   29.94S HX  96
FORT KNOX      PTSUNNY   87  74  65 SW13G20   29.95S HX  95
$$

KYZ035>037-039>044-047>052-055>060-089>105-171700-
NORTHEAST KENTUCKY

CITY           SKY/WX    TMP DP  RH WIND       PRES   REMARKS
LEXINGTON      PTSUNNY   84  73  69 SW10      30.00S HX  90
COVINGTON      PTSUNNY   84  77  79 SW14G20   29.94S HX  94
FRANKFORT      PTSUNNY   86  74  67 SW13G20   29.97F HX  94
$$

KYZ054-064>069-076>088-106>120-171700-
SOUTHEAST KENTUCKY

CITY           SKY/WX    TMP DP  RH WIND       PRES   REMARKS
JACKSON        MOSUNNY   79  75  87 CALM      30.05F
LONDON         PTSUNNY   83  72  69 SW10      30.06S
SOMERSET       NOT AVBL
MIDDLESBORO    PTSUNNY   85  74  69 S8        30.07S HX  92
MONTICELLO     PTSUNNY   85  75  72 SW10G18   30.06S HX  93
$$





USA.gov is the U.S. government's official web portal to all federal, state and local government web resources and services.